Home   Weather   Stockton   Past weeks

Flag for USA Past Weather in Stockton, California, USA — Yesterday and Last 2 Weeks

Now
51 °F

Mostly cloudy.


Feels Like: 49 °F
Forecast: 46 / 55 °F
Wind: 6 mph from Southeast

Location: Stockton Metropolitan Airport

Current Time: Jan 19, 2017 at 11:18:49 am

Latest Report: Jan 19, 2017 at 9:55 am


Visibility: 10 mi

Pressure: 29.89 "Hg

Humidity: 92%

Dew Point: 49 °F

Location of StocktonLocation

Past Weather in Stockton — Graph

°F

Stockton Temperature Yesterday

Maximum temperature yesterday: 49 °F (at 12:04 pm)
Minimum temperature yesterday: 42 °F (at 12:08 am)
Average temperature yesterday: 46 °F

High & Low Weather Summary for the Past Weeks

 TemperatureHumidityPressure
High64 °F (Jan 8, 10:55 am)100% (Jan 4, 9:22 am)30.25 "Hg (Jan 4, 9:22 am)
Low29 °F (Jan 6, 3:55 am)50% (Jan 6, 2:55 pm)29.70 "Hg (Jan 10, 7:20 pm)
Average47 °F91%30.03 "Hg
* Reported Jan 4 9:22 am — Jan 19 9:55 am, Stockton, Weather by CustomWeather, © 2017

Note: Actual official high and low records may vary slightly from our data, if they occured in-between our weather recording intervals... More about our weather records

Advertising

Stockton Weather History for the Previous 24 Hours

Scroll right to see more
 ConditionsComfort  
Time TempWeatherWind HumidityBarometerVisibility
9:55 am
Thu, Jan 19
51 °FMostly cloudy.6 mph92%29.89 "Hg10 mi
8:55 am49 °FBroken clouds.8 mph97%29.87 "Hg9 mi
7:55 am47 °FLight rain. Fog.3 mph93%29.86 "Hg6 mi
6:55 am46 °FMostly cloudy.No wind100%29.84 "Hg10 mi
5:55 am45 °FPassing clouds.6 mph97%29.83 "Hg10 mi
4:55 am46 °FPartly cloudy.9 mph93%29.83 "Hg10 mi
3:55 am45 °FMostly cloudy.6 mph97%29.83 "Hg10 mi
2:55 am45 °FClear.9 mph93%29.83 "Hg10 mi
1:55 am46 °FClear.7 mph93%29.83 "Hg10 mi
12:55 am47 °FClear.13 mph93%29.82 "Hg10 mi
11:55 pm
Wed, Jan 18
49 °FOvercast.21 mph90%29.83 "Hg10 mi
10:55 pm49 °FOvercast.22 mph90%29.83 "Hg10 mi
9:55 pm48 °FLight rain. Mostly cloudy.21 mph93%29.82 "Hg10 mi
9:31 pm49 °FRain. Fog.28 mph93%29.86 "Hg5 mi
8:55 pm49 °FLight rain. Mostly cloudy.28 mph90%29.83 "Hg7 mi
7:55 pm49 °FMostly cloudy.30 mph86%29.77 "Hg10 mi
7:07 pm48 °FLight rain. Overcast.28 mph93%29.78 "Hg8 mi
5:55 pm48 °FLight rain. Mostly cloudy.30 mph93%29.82 "Hg7 mi
4:55 pm49 °FLight rain. Fog.33 mph90%29.83 "Hg5 mi
3:55 pm49 °FRain. Fog.29 mph93%29.88 "Hg3 mi
3:16 pm48 °FRain. Fog.26 mph96%29.89 "Hg3 mi
2:55 pm48 °FRain. Fog.22 mph96%29.90 "Hg2 mi
2:27 pm48 °FRain. Fog.25 mph96%29.93 "Hg2 mi
1:55 pm47 °FRain. Fog.25 mph100%29.96 "Hg2 mi
12:55 pm49 °FLight rain. Fog.17 mph93%30.00 "Hg2 mi
12:04 pm49 °FLight rain. Fog.15 mph93%30.01 "Hg2 mi
11:02 am48 °FLight rain. Fog.13 mph96%30.05 "Hg2 mi
Weather by CustomWeather, © 2017

See weather overviewHow to use our weather pages